Weather History for Gadsden, AL

Change the Weather History Date:

Tuesday, October 19, 2010

  Actual Average Record
Temperature  
Mean Temperature 62 °F -  
Max Temperature 82 °F 70 °F 89 °F (1938)
Min Temperature 42 °F 46 °F 27 °F (1948)
Degree Days  
Heating Degree Days 3    
Growing Degree Days 12 (Base 50)    
Moisture  
Dew Point 46 °F    
Average Humidity 61    
Maximum Humidity 87    
Minimum Humidity 30    
Precipitation  
Precipitation 0.00 in - - ()
Sea Level Pressure  
Sea Level Pressure 29.94 in    
Wind  
Wind Speed 2 mph (West)    
Max Wind Speed 13 mph    
Max Gust Speed 17 mph    
Visibility 10 miles    
Events      
Averages and records for this station are not official NWS values.
T = Trace of Precipitation, MM = Missing Value Source: NWS Daily Summary

Daily Weather History Graph

Daily Weather History Graph

Search for Another Location

Airport:

Trip Planner

Search our weather history database for the weather conditions in past years. The results will help you decide how hot, cold, wet, or windy it might be!

Date:

Astronomy

Oct. 19, 2010 Rise Set
Actual Time 6:52 AM CDT 6:05 PM CDT
Civil Twilight 6:27 AM CDT 6:30 PM CDT
Nautical Twilight 5:58 AM CDT 6:59 PM CDT
Astronomical Twilight 5:29 AM CDT 7:28 PM CDT
Moon 4:08 PM CDT (10/19) 3:45 AM CDT (10/19)
Length of Visible Light 12h 03m
Length of Day
11h 12m
Waxing Gibbous, 90% of the Moon is Illuminated
Oct 19
Waxing Gibbous
Oct 22
Full
Oct 30
Last Quarter
Nov 5
New
Nov 13
First Quarter

Hourly Weather History & Observations

Time (CDT) Temp. Dew Point Humidity Pressure Visibility Wind Dir Wind Speed Gust Speed Precip Events Conditions
12:15 AM 50.0 °F 42.8 °F 76% 29.96 in 10.0 mi Calm Calm - N/A   Clear
12:35 AM 48.2 °F 42.8 °F 82% 29.95 in 10.0 mi Calm Calm - N/A   Clear
12:55 AM 46.4 °F 41.0 °F 81% 29.95 in 10.0 mi Calm Calm - N/A   Clear
1:15 AM 46.4 °F 41.0 °F 81% 29.95 in 10.0 mi Calm Calm - N/A   Clear
1:35 AM 46.4 °F 41.0 °F 81% 29.95 in 10.0 mi Calm Calm - N/A   Clear
1:55 AM 44.6 °F 41.0 °F 87% 29.95 in 10.0 mi Calm Calm - N/A   Clear
2:15 AM 46.4 °F 42.8 °F 87% 29.94 in 10.0 mi Calm Calm - N/A   Clear
2:35 AM 46.4 °F 41.0 °F 81% 29.94 in 10.0 mi Calm Calm - N/A   Clear
2:55 AM 44.6 °F 41.0 °F 87% 29.94 in 10.0 mi Calm Calm - N/A   Clear
3:15 AM 44.6 °F 39.2 °F 81% 29.94 in 10.0 mi Calm Calm - N/A   Clear
3:35 AM 44.6 °F 41.0 °F 87% 29.94 in 10.0 mi Calm Calm - N/A   Clear
3:55 AM 44.6 °F 41.0 °F 87% 29.94 in 10.0 mi Calm Calm - N/A   Clear
4:15 AM 44.6 °F 39.2 °F 81% 29.94 in 10.0 mi Calm Calm - N/A   Clear
4:35 AM 44.6 °F 39.2 °F 81% 29.94 in 10.0 mi Calm Calm - N/A   Clear
4:55 AM 44.6 °F 39.2 °F 81% 29.95 in 10.0 mi Calm Calm - N/A   Clear
5:15 AM 44.6 °F 39.2 °F 81% 29.95 in 10.0 mi Calm Calm - N/A   Clear
5:35 AM 44.6 °F 39.2 °F 81% 29.95 in 10.0 mi Calm Calm - N/A   Clear
5:55 AM 44.6 °F 39.2 °F 81% 29.95 in 10.0 mi Calm Calm - N/A   Clear
6:15 AM 42.8 °F 39.2 °F 87% 29.95 in 10.0 mi Calm Calm - N/A   Clear
6:55 AM 42.8 °F 39.2 °F 87% 29.96 in 10.0 mi Calm Calm - N/A   Clear
7:15 AM 42.8 °F 39.2 °F 87% 29.97 in 10.0 mi Calm Calm - N/A   Clear
7:35 AM 44.6 °F 41.0 °F 87% 29.98 in 10.0 mi Calm Calm - N/A   Mostly Cloudy
7:55 AM 46.4 °F 41.0 °F 81% 29.98 in 10.0 mi Calm Calm - N/A   Partly Cloudy
8:15 AM 48.2 °F 42.8 °F 82% 29.98 in 10.0 mi Calm Calm - N/A   Clear
8:35 AM 50.0 °F 42.8 °F 76% 29.99 in 10.0 mi Calm Calm - N/A   Clear
8:55 AM 53.6 °F 44.6 °F 72% 29.99 in 10.0 mi Calm Calm - N/A   Clear
9:15 AM 55.4 °F 44.6 °F 67% 29.99 in 10.0 mi Calm Calm - N/A   Clear
9:35 AM 59.0 °F 46.4 °F 63% 29.99 in 10.0 mi Calm Calm - N/A   Clear
9:55 AM 60.8 °F 46.4 °F 59% 29.99 in 10.0 mi Calm Calm - N/A   Clear
10:15 AM 64.4 °F 48.2 °F 56% 29.99 in 10.0 mi Calm Calm - N/A   Clear
10:35 AM 66.2 °F 48.2 °F 52% 29.99 in 10.0 mi SW 3.5 mph - N/A   Clear
10:55 AM 69.8 °F 50.0 °F 49% 29.98 in 10.0 mi SSW 3.5 mph - N/A   Clear
11:15 AM 71.6 °F 50.0 °F 46% 29.98 in 10.0 mi SW 4.6 mph - N/A   Clear
11:35 AM 73.4 °F 51.8 °F 47% 29.98 in 10.0 mi Calm Calm - N/A   Clear
11:55 AM 75.2 °F 51.8 °F 44% 29.97 in 10.0 mi Calm Calm - N/A   Clear
12:15 PM 77.0 °F 51.8 °F 41% 29.96 in 10.0 mi Calm Calm - N/A   Clear
12:35 PM 80.6 °F 51.8 °F 37% 29.95 in 10.0 mi WSW 4.6 mph - N/A   Clear
12:55 PM 78.8 °F 50.0 °F 36% 29.94 in 10.0 mi SW 6.9 mph - N/A   Mostly Cloudy
1:15 PM 82.4 °F 50.0 °F 32% 29.93 in 10.0 mi West 10.4 mph - N/A   Overcast
1:35 PM 82.4 °F 50.0 °F 32% 29.92 in 10.0 mi West 5.8 mph - N/A   Overcast
2:35 PM 80.6 °F 48.2 °F 32% 29.90 in 10.0 mi West 9.2 mph - N/A   Scattered Clouds
2:55 PM 80.6 °F 48.2 °F 32% 29.90 in 10.0 mi WSW 11.5 mph - N/A   Scattered Clouds
3:15 PM 82.4 °F 48.2 °F 30% 29.89 in 10.0 mi West 11.5 mph - N/A   Partly Cloudy
3:35 PM 82.4 °F 48.2 °F 30% 29.89 in 10.0 mi West 10.4 mph 16.1 mph N/A   Scattered Clouds
3:55 PM 80.6 °F 48.2 °F 32% 29.88 in 10.0 mi WSW 6.9 mph - N/A   Clear
4:15 PM 78.8 °F 48.2 °F 34% 29.88 in 10.0 mi WSW 10.4 mph - N/A   Partly Cloudy
4:35 PM 80.6 °F 48.2 °F 32% 29.88 in 10.0 mi West 4.6 mph - N/A   Clear
4:55 PM 78.8 °F 48.2 °F 34% 29.88 in 10.0 mi SW 6.9 mph - N/A   Clear
5:15 PM 77.0 °F 48.2 °F 36% 29.88 in 10.0 mi WSW 6.9 mph - N/A   Clear
5:35 PM 77.0 °F 48.2 °F 36% 29.88 in 10.0 mi WSW 5.8 mph - N/A   Clear
5:55 PM 73.4 °F 48.2 °F 41% 29.88 in 10.0 mi SW 4.6 mph - N/A   Scattered Clouds
6:15 PM 71.6 °F 48.2 °F 43% 29.89 in 10.0 mi SW 4.6 mph - N/A   Mostly Cloudy
6:35 PM 69.8 °F 50.0 °F 49% 29.89 in 10.0 mi SW 3.5 mph - N/A   Overcast
6:55 PM 68.0 °F 50.0 °F 52% 29.90 in 10.0 mi WSW 3.5 mph - N/A   Overcast
7:15 PM 71.6 °F 50.0 °F 46% 29.91 in 10.0 mi NNW 8.1 mph - N/A   Overcast
7:35 PM 71.6 °F 51.8 °F 50% 29.93 in 10.0 mi NNW 12.7 mph 17.3 mph N/A   Overcast
7:55 PM 69.8 °F 51.8 °F 53% 29.94 in 10.0 mi NW 9.2 mph - N/A   Mostly Cloudy
8:15 PM 69.8 °F 53.6 °F 56% 29.94 in 10.0 mi NNW 9.2 mph - N/A   Scattered Clouds
8:35 PM 68.0 °F 53.6 °F 60% 29.94 in 10.0 mi NNW 5.8 mph - N/A   Mostly Cloudy
8:55 PM 66.2 °F 53.6 °F 64% 29.94 in 10.0 mi NNW 5.8 mph - N/A   Mostly Cloudy
9:15 PM 66.2 °F 53.6 °F 64% 29.95 in 10.0 mi NNW 5.8 mph - N/A   Mostly Cloudy
9:35 PM 64.4 °F 53.6 °F 68% 29.95 in 10.0 mi North 4.6 mph - N/A   Overcast
9:55 PM 64.4 °F 53.6 °F 68% 29.95 in 10.0 mi North 5.8 mph - N/A   Overcast
10:15 PM 64.4 °F 55.4 °F 73% 29.95 in 10.0 mi NW 4.6 mph - N/A   Overcast
10:35 PM 64.4 °F 55.4 °F 73% 29.95 in 10.0 mi Calm Calm - N/A   Overcast
10:55 PM 62.6 °F 55.4 °F 77% 29.95 in 10.0 mi Calm Calm - N/A   Overcast
11:15 PM 62.6 °F 57.2 °F 82% 29.94 in 9.0 mi Calm Calm - N/A   Overcast
11:35 PM 60.8 °F 57.2 °F 88% 29.93 in 10.0 mi Calm Calm - N/A   Overcast
11:55 PM 60.8 °F 57.2 °F 88% 29.93 in 10.0 mi Calm Calm - N/A   Overcast